| time (UTC) | temp C | wind direction | speed KPH | gust KPH | rain 1hr cm | rain 24hr cm | rain mn cm | humidity % | barometer mb |
| 20260903150017 | 27 | 117 | 19.3 | 24.1 | 0.00 | 0.00 | 0.00 | 74 | 1014.0 |
| 20260903145517 | 27 | 124 | 17.7 | 25.7 | 0.00 | 0.00 | 0.00 | 74 | 1014.0 |
| 20260903145017 | 27 | 123 | 19.3 | 25.7 | 0.00 | 0.00 | 0.00 | 74 | 1014.0 |
| 20260903144517 | 27 | 111 | 20.9 | 24.1 | 0.00 | 0.00 | 0.00 | 74 | 1014.1 |
| 20260903144017 | 27 | 0 | 0.0 | 24.1 | 0.00 | 0.00 | 0.00 | 74 | 1014.0 |
| 20260903143517 | 27 | 112 | 12.9 | 24.1 | 0.00 | 0.00 | 0.00 | 75 | 1014.1 |
| 20260903143017 | 27 | 0 | 0.0 | 24.1 | 0.00 | 0.00 | 0.00 | 75 | 1014.0 |
| 20260903142517 | 27 | 118 | 14.5 | 22.5 | 0.00 | 0.00 | 0.00 | 75 | 1014.0 |
| 20260903142016 | 27 | 141 | 14.5 | 20.9 | 0.00 | 0.00 | 0.00 | 76 | 1013.9 |
| 20260903141516 | 27 | 126 | 12.9 | 17.7 | 0.00 | 0.00 | 0.00 | 76 | 1014.0 |
| 20260903141016 | 27 | 121 | 14.5 | 17.7 | 0.00 | 0.00 | 0.00 | 77 | 1014.0 |
| 20260903140517 | 27 | 114 | 9.7 | 17.7 | 0.00 | 0.00 | 0.00 | 77 | 1014.0 |
| 20260903140016 | 26 | 115 | 11.3 | 16.1 | 0.00 | 0.00 | 0.00 | 79 | 1014.1 |
| 20260903135516 | 26 | 142 | 11.3 | 17.7 | 0.00 | 0.00 | 0.00 | 80 | 1014.1 |
| 20260903135016 | 26 | 93 | 12.9 | 20.9 | 0.00 | 0.00 | 0.00 | 82 | 1014.1 |
| 20260903134016 | 26 | 76 | 17.7 | 20.9 | 0.00 | 0.00 | 0.00 | 84 | 1014.0 |
| 20260903133516 | 26 | 87 | 12.9 | 17.7 | 0.00 | 0.00 | 0.00 | 84 | 1014.1 |
| 20260903133016 | 26 | 95 | 11.3 | 16.1 | 0.00 | 0.00 | 0.00 | 86 | 1014.1 |
| 20260903132516 | 25 | 84 | 14.5 | 22.5 | 0.00 | 0.00 | 0.00 | 87 | 1014.1 |
| 20260903132016 | 25 | 91 | 12.9 | 22.5 | 0.00 | 0.00 | 0.00 | 88 | 1014.1 |
| 20260903131015 | 25 | 105 | 14.5 | 17.7 | 0.00 | 0.00 | 0.00 | 89 | 1014.2 |
| 20260903130517 | 25 | 84 | 14.5 | 17.7 | 0.00 | 0.00 | 0.00 | 89 | 1014.2 |
| 20260903130016 | 25 | 76 | 12.9 | 12.9 | 0.00 | 0.00 | 0.00 | 87 | 1014.2 |
| 20260903125015 | 24 | 91 | 11.3 | 11.3 | 0.00 | 0.00 | 0.00 | 88 | 1014.2 |
| 20260903124515 | 24 | 94 | 8.0 | 9.7 | 0.00 | 0.00 | 0.00 | 88 | 1014.0 |
| 20260903124016 | 24 | 93 | 6.4 | 9.7 | 0.00 | 0.00 | 0.00 | 88 | 1013.9 |
| 20260903123515 | 24 | 90 | 4.8 | 6.4 | 0.00 | 0.00 | 0.00 | 88 | 1013.7 |
| 20260903123015 | 23 | 68 | 3.2 | 8.0 | 0.00 | 0.00 | 0.00 | 89 | 1013.6 |
| 20260903121515 | 24 | 104 | 11.3 | 12.9 | 0.00 | 0.00 | 0.00 | 88 | 1013.7 |
| 20260903121015 | 25 | 117 | 4.8 | 4.8 | 0.00 | 0.00 | 0.00 | 86 | 1013.6 |
| 20260903120015 | 24 | 222 | 3.2 | 4.8 | 0.00 | 0.00 | 0.00 | 87 | 1013.5 |
| 20260903115515 | 24 | 126 | 1.6 | 6.4 | 0.00 | 0.00 | 0.00 | 88 | 1013.5 |
| 20260903115015 | 24 | 18 | 3.2 | 6.4 | 0.00 | 0.00 | 0.00 | 88 | 1013.4 |
| 20260903114515 | 24 | 34 | 4.8 | 8.0 | 0.00 | 0.00 | 0.00 | 88 | 1013.4 |
| 20260903114015 | 24 | 36 | 8.0 | 8.0 | 0.00 | 0.00 | 0.00 | 88 | 1013.4 |
| 20260903113515 | 24 | 81 | 4.8 | 9.7 | 0.00 | 0.00 | 0.00 | 87 | 1013.5 |
| 20260903113015 | 24 | 115 | 6.4 | 11.3 | 0.00 | 0.00 | 0.00 | 88 | 1013.6 |
| 20260903112515 | 24 | 105 | 8.0 | 11.3 | 0.00 | 0.00 | 0.00 | 88 | 1013.6 |
| 20260903111515 | 24 | 97 | 8.0 | 8.0 | 0.00 | 0.00 | 0.00 | 88 | 1013.5 |
| 20260903111015 | 24 | 84 | 8.0 | 8.0 | 0.00 | 0.00 | 0.00 | 88 | 1013.5 |
| 20260903110515 | 24 | 84 | 4.8 | 8.0 | 0.00 | 0.00 | 0.00 | 88 | 1013.5 |
| 20260903110014 | 24 | 84 | 4.8 | 9.7 | 0.00 | 0.00 | 0.00 | 88 | 1013.4 |
| 20260903105515 | 24 | 107 | 8.0 | 11.3 | 0.00 | 0.00 | 0.00 | 87 | 1013.4 |
| 20260903104515 | 24 | 99 | 8.0 | 12.9 | 0.00 | 0.00 | 0.00 | 87 | 1013.3 |
| 20260903104014 | 25 | 104 | 11.3 | 12.9 | 0.00 | 0.00 | 0.00 | 87 | 1013.3 |
| 20260903103515 | 25 | 103 | 9.7 | 14.5 | 0.00 | 0.00 | 0.00 | 86 | 1013.3 |
| 20260903102514 | 24 | 106 | 9.7 | 11.3 | 0.00 | 0.00 | 0.00 | 87 | 1013.4 |
| 20260903102044 | 24 | 86 | 6.4 | 6.4 | 0.00 | 0.00 | 0.00 | 86 | 1013.4 |
| 20260903101514 | 24 | 74 | 4.8 | 8.0 | 0.00 | 0.00 | 0.00 | 86 | 1013.5 |
| 20260903101014 | 25 | 90 | 6.4 | 9.7 | 0.00 | 0.00 | 0.00 | 85 | 1013.4 |
| 20260903100014 | 25 | 98 | 8.0 | 8.0 | 0.00 | 0.00 | 0.00 | 85 | 1013.5 |
| 20260903095014 | 24 | 101 | 6.4 | 6.4 | 0.00 | 0.00 | 0.00 | 86 | 1013.5 |
| 20260903094514 | 24 | 104 | 4.8 | 6.4 | 0.00 | 0.00 | 0.00 | 86 | 1013.4 |
| 20260903094014 | 24 | 45 | 6.4 | 6.4 | 0.00 | 0.00 | 0.00 | 86 | 1013.4 |
| 20260903093513 | 24 | 93 | 4.8 | 6.4 | 0.00 | 0.00 | 0.00 | 86 | 1013.3 |
| 20260903092513 | 24 | 180 | 3.2 | 4.8 | 0.00 | 0.00 | 0.00 | 86 | 1013.4 |
| 20260903092013 | 24 | 242 | 3.2 | 8.0 | 0.00 | 0.00 | 0.00 | 86 | 1013.4 |
| 20260903091513 | 24 | 246 | 8.0 | 8.0 | 0.00 | 0.00 | 0.00 | 86 | 1013.4 |
| 20260903090013 | 24 | 100 | 9.7 | 11.3 | 0.00 | 0.00 | 0.00 | 86 | 1013.3 |
| 20260903085513 | 24 | 85 | 8.0 | 11.3 | 0.00 | 0.00 | 0.00 | 85 | 1013.2 |
| 20260903084513 | 25 | 79 | 8.0 | 11.3 | 0.00 | 0.00 | 0.00 | 85 | 1013.2 |
| 20260903084013 | 25 | 86 | 8.0 | 11.3 | 0.00 | 0.00 | 0.00 | 84 | 1013.2 |
| 20260903083513 | 25 | 87 | 8.0 | 14.5 | 0.00 | 0.00 | 0.00 | 84 | 1013.2 |
| 20260903083013 | 25 | 83 | 11.3 | 16.1 | 0.00 | 0.00 | 0.00 | 84 | 1013.2 |
| 20260903082513 | 25 | 100 | 14.5 | 16.1 | 0.00 | 0.00 | 0.00 | 84 | 1013.3 |
| 20260903081513 | 25 | 93 | 11.3 | 14.5 | 0.00 | 0.00 | 0.00 | 82 | 1013.4 |
| 20260903080512 | 25 | 90 | 6.4 | 9.7 | 0.00 | 0.00 | 0.00 | 82 | 1013.4 |
| 20260903080012 | 25 | 89 | 8.0 | 9.7 | 0.00 | 0.00 | 0.00 | 82 | 1013.4 |
| 20260903075512 | 25 | 77 | 8.0 | 9.7 | 0.00 | 0.00 | 0.00 | 81 | 1013.3 |
| 20260903075012 | 25 | 99 | 8.0 | 12.9 | 0.00 | 0.00 | 0.00 | 81 | 1013.3 |
| 20260903074013 | 25 | 94 | 11.3 | 11.3 | 0.00 | 0.00 | 0.00 | 80 | 1013.3 |
| 20260903073013 | 25 | 102 | 11.3 | 11.3 | 0.00 | 0.00 | 0.00 | 80 | 1013.4 |
| 20260903072512 | 25 | 97 | 9.7 | 11.3 | 0.00 | 0.00 | 0.00 | 80 | 1013.3 |
| 20260903072012 | 25 | 98 | 6.4 | 12.9 | 0.00 | 0.00 | 0.00 | 79 | 1013.4 |
| 20260903071012 | 26 | 90 | 11.3 | 16.1 | 0.00 | 0.00 | 0.00 | 78 | 1013.5 |
| 20260903070512 | 26 | 97 | 11.3 | 16.1 | 0.00 | 0.00 | 0.00 | 78 | 1013.5 |
| 20260903065512 | 26 | 108 | 14.5 | 16.1 | 0.00 | 0.00 | 0.00 | 77 | 1013.6 |
| 20260903065012 | 26 | 118 | 16.1 | 19.3 | 0.00 | 0.00 | 0.00 | 76 | 1013.6 |
| 20260903064512 | 26 | 103 | 14.5 | 19.3 | 0.00 | 0.00 | 0.00 | 76 | 1013.6 |
| 20260903064012 | 26 | 116 | 14.5 | 22.5 | 0.00 | 0.00 | 0.00 | 75 | 1013.7 |
| 20260903063512 | 26 | 108 | 16.1 | 24.1 | 0.00 | 0.00 | 0.00 | 74 | 1013.7 |
| 20260903063012 | 27 | 105 | 17.7 | 24.1 | 0.00 | 0.00 | 0.00 | 74 | 1013.7 |
| 20260903062512 | 27 | 109 | 17.7 | 24.1 | 0.00 | 0.00 | 0.00 | 73 | 1013.8 |
| 20260903061511 | 27 | 124 | 16.1 | 17.7 | 0.00 | 0.00 | 0.00 | 71 | 1013.9 |
| 20260903060511 | 27 | 107 | 11.3 | 17.7 | 0.00 | 0.00 | 0.00 | 70 | 1013.9 |
| 20260903060011 | 27 | 111 | 11.3 | 20.9 | 0.00 | 0.00 | 0.00 | 69 | 1013.9 |
| 20260903055512 | 27 | 111 | 14.5 | 20.9 | 0.00 | 0.00 | 0.00 | 69 | 1013.9 |
| 20260903055011 | 27 | 113 | 12.9 | 19.3 | 0.00 | 0.00 | 0.00 | 68 | 1013.9 |
| 20260903054512 | 27 | 110 | 14.5 | 17.7 | 0.00 | 0.00 | 0.00 | 68 | 1013.9 |
| 20260903054011 | 27 | 110 | 17.7 | 17.7 | 0.00 | 0.00 | 0.00 | 67 | 1013.9 |
| 20260903053511 | 27 | 106 | 12.9 | 17.7 | 0.00 | 0.00 | 0.00 | 67 | 1013.9 |
| 20260903053012 | 27 | 111 | 12.9 | 19.3 | 0.00 | 0.00 | 0.00 | 66 | 1013.9 |
| 20260903052511 | 28 | 106 | 14.5 | 20.9 | 0.00 | 0.00 | 0.00 | 66 | 1013.9 |
| 20260903051511 | 28 | 103 | 14.5 | 20.9 | 0.00 | 0.00 | 0.00 | 66 | 1013.8 |
| 20260903051011 | 28 | 104 | 16.1 | 17.7 | 0.00 | 0.00 | 0.00 | 66 | 1013.9 |
| 20260903050511 | 28 | 102 | 12.9 | 16.1 | 0.00 | 0.00 | 0.00 | 65 | 1013.9 |
| 20260903050011 | 28 | 104 | 14.5 | 19.3 | 0.00 | 0.00 | 0.00 | 65 | 1013.9 |
| 20260903045511 | 28 | 109 | 16.1 | 19.3 | 0.00 | 0.00 | 0.00 | 64 | 1013.9 |
| 20260903045011 | 28 | 120 | 12.9 | 19.3 | 0.00 | 0.00 | 0.00 | 64 | 1013.7 |
| 20260903044511 | 28 | 124 | 12.9 | 22.5 | 0.00 | 0.00 | 0.00 | 63 | 1013.7 |
| 20260903044011 | 28 | 124 | 14.5 | 27.4 | 0.00 | 0.00 | 0.00 | 63 | 1013.7 |
| 20260903043010 | 29 | 127 | 16.1 | 27.4 | 0.00 | 0.00 | 0.00 | 63 | 1013.7 |
| 20260903042511 | 29 | 118 | 22.5 | 27.4 | 0.00 | 0.00 | 0.00 | 62 | 1013.6 |
| 20260903042010 | 29 | 118 | 25.7 | 29.0 | 0.00 | 0.00 | 0.00 | 62 | 1013.6 |
| 20260903041010 | 30 | 116 | 24.1 | 29.0 | 0.00 | 0.00 | 0.00 | 60 | 1013.7 |
| 20260903040510 | 30 | 117 | 20.9 | 30.6 | 0.00 | 0.00 | 0.00 | 59 | 1013.6 |
| 20260903040010 | 30 | 119 | 22.5 | 30.6 | 0.00 | 0.00 | 0.00 | 58 | 1013.6 |
| 20260903035510 | 30 | 119 | 24.1 | 30.6 | 0.00 | 0.00 | 0.00 | 57 | 1013.5 |
| 20260903035010 | 30 | 118 | 17.7 | 29.0 | 0.00 | 0.00 | 0.00 | 56 | 1013.6 |
| 20260903034510 | 31 | 0 | 0.0 | 27.4 | 0.00 | 0.00 | 0.00 | 55 | 1013.6 |
| 20260903033510 | 31 | 117 | 16.1 | 27.4 | 0.00 | 0.00 | 0.00 | 53 | 1013.5 |
| 20260903033010 | 31 | 117 | 17.7 | 30.6 | 0.00 | 0.00 | 0.00 | 53 | 1013.5 |
| 20260903032510 | 31 | 117 | 20.9 | 30.6 | 0.00 | 0.00 | 0.00 | 52 | 1013.5 |
| 20260903032010 | 31 | 116 | 17.7 | 29.0 | 0.00 | 0.00 | 0.00 | 52 | 1013.4 |
| 20260903031510 | 31 | 117 | 16.1 | 29.0 | 0.00 | 0.00 | 0.00 | 52 | 1013.5 |
| 20260903030509 | 31 | 108 | 11.3 | 24.1 | 0.00 | 0.00 | 0.00 | 53 | 1013.4 |
| 20260903030010 | 31 | 117 | 14.5 | 24.1 | 0.00 | 0.00 | 0.00 | 53 | 1013.3 |
| 20260903025010 | 31 | 109 | 11.3 | 19.3 | 0.00 | 0.00 | 0.00 | 53 | 1013.2 |
| 20260903024509 | 31 | 114 | 19.3 | 19.3 | 0.00 | 0.00 | 0.00 | 53 | 1013.2 |
| 20260903024009 | 31 | 109 | 12.9 | 17.7 | 0.00 | 0.00 | 0.00 | 53 | 1013.1 |
| 20260903023509 | 31 | 96 | 14.5 | 17.7 | 0.00 | 0.00 | 0.00 | 52 | 1013.1 |
| 20260903022510 | 31 | 107 | 11.3 | 16.1 | 0.00 | 0.00 | 0.00 | 52 | 1013.0 |
| 20260903022009 | 31 | 113 | 12.9 | 16.1 | 0.00 | 0.00 | 0.00 | 52 | 1012.9 |
| 20260903021509 | 32 | 104 | 11.3 | 14.5 | 0.00 | 0.00 | 0.00 | 51 | 1013.0 |
| 20260903021009 | 32 | 101 | 14.5 | 17.7 | 0.00 | 0.00 | 0.00 | 51 | 1012.9 |
| 20260903020509 | 32 | 113 | 12.9 | 19.3 | 0.00 | 0.00 | 0.00 | 51 | 1012.8 |
| 20260903020009 | 32 | 115 | 14.5 | 19.3 | 0.00 | 0.00 | 0.00 | 51 | 1012.7 |
| 20260903015509 | 32 | 120 | 12.9 | 17.7 | 0.00 | 0.00 | 0.00 | 51 | 1012.6 |
| 20260903015009 | 32 | 111 | 12.9 | 17.7 | 0.00 | 0.00 | 0.00 | 51 | 1012.5 |
| 20260903014509 | 32 | 123 | 16.1 | 20.9 | 0.00 | 0.00 | 0.00 | 50 | 1012.4 |
| 20260903014009 | 32 | 122 | 14.5 | 20.9 | 0.00 | 0.00 | 0.00 | 49 | 1012.4 |
| 20260903013009 | 32 | 114 | 17.7 | 27.4 | 0.00 | 0.00 | 0.00 | 47 | 1012.3 |
| 20260903012509 | 33 | 105 | 17.7 | 29.0 | 0.00 | 0.00 | 0.00 | 46 | 1012.2 |
| 20260903012010 | 33 | 109 | 14.5 | 29.0 | 0.00 | 0.00 | 0.00 | 45 | 1012.1 |
| 20260903011509 | 33 | 104 | 14.5 | 17.7 | 0.00 | 0.00 | 0.00 | 44 | 1012.1 |
| 20260903011009 | 33 | 92 | 12.9 | 20.9 | 0.00 | 0.00 | 0.00 | 43 | 1012.1 |
| 20260903010508 | 33 | 95 | 12.9 | 22.5 | 0.00 | 0.00 | 0.00 | 43 | 1012.0 |
| 20260903010008 | 33 | 89 | 17.7 | 22.5 | 0.00 | 0.00 | 0.00 | 43 | 1011.9 |
| 20260903005508 | 33 | 103 | 16.1 | 22.5 | 0.00 | 0.00 | 0.00 | 42 | 1012.0 |
| 20260903005008 | 33 | 107 | 11.3 | 22.5 | 0.00 | 0.00 | 0.00 | 41 | 1012.0 |
| 20260903004508 | 34 | 95 | 12.9 | 24.1 | 0.00 | 0.00 | 0.00 | 41 | 1011.9 |
| 20260903004008 | 34 | 95 | 14.5 | 24.1 | 0.00 | 0.00 | 0.00 | 41 | 1011.9 |
| 20260903003508 | 34 | 96 | 17.7 | 30.6 | 0.00 | 0.00 | 0.00 | 40 | 1011.9 |
| 20260903003008 | 35 | 116 | 20.9 | 30.6 | 0.00 | 0.00 | 0.00 | 40 | 1011.8 |
| 20260903002509 | 35 | 98 | 22.5 | 25.7 | 0.00 | 0.00 | 0.00 | 40 | 1011.8 |
| 20260903001508 | 35 | 94 | 16.1 | 22.5 | 0.00 | 0.00 | 0.00 | 40 | 1011.9 |
| 20260903001008 | 35 | 90 | 16.1 | 22.5 | 0.00 | 0.00 | 0.00 | 40 | 1011.9 |
| 20260903000511 | 35 | 111 | 20.9 | 24.1 | 0.00 | 0.00 | 0.00 | 39 | 1011.8 |
| 20260903000008 | 35 | 111 | 19.3 | 25.7 | 0.00 | 0.00 | 0.00 | 39 | 1011.8 |
| 20260902235508 | 35 | 109 | 16.1 | 25.7 | 0.00 | 0.00 | 0.00 | 39 | 1011.8 |
| 20260902235008 | 35 | 91 | 12.9 | 27.4 | 0.00 | 0.00 | 0.00 | 39 | 1011.9 |
| 20260902234508 | 35 | 108 | 19.3 | 27.4 | 0.00 | 0.00 | 0.00 | 39 | 1011.8 |
| 20260902234008 | 35 | 82 | 14.5 | 29.0 | 0.00 | 0.00 | 0.00 | 39 | 1011.9 |
| 20260902233008 | 35 | 75 | 24.1 | 29.0 | 0.00 | 0.00 | 0.00 | 38 | 1011.8 |
| 20260902232508 | 35 | 84 | 24.1 | 29.0 | 0.00 | 0.00 | 0.00 | 39 | 1011.7 |
| 20260902231007 | 35 | 63 | 22.5 | 30.6 | 0.00 | 0.00 | 0.00 | 39 | 1011.7 |
| 20260902230507 | 35 | 76 | 19.3 | 25.7 | 0.00 | 0.00 | 0.00 | 39 | 1011.8 |
| 20260902230007 | 35 | 100 | 17.7 | 27.4 | 0.00 | 0.00 | 0.00 | 38 | 1011.8 |
| 20260902225507 | 35 | 85 | 17.7 | 35.4 | 0.00 | 0.00 | 0.00 | 39 | 1011.9 |
| 20260902225007 | 35 | 72 | 16.1 | 35.4 | 0.00 | 0.00 | 0.00 | 39 | 1011.9 |
| 20260902224007 | 36 | 83 | 20.9 | 32.2 | 0.00 | 0.00 | 0.00 | 39 | 1011.9 |
| 20260902223507 | 35 | 103 | 19.3 | 32.2 | 0.00 | 0.00 | 0.00 | 39 | 1012.0 |
| 20260902223007 | 35 | 68 | 16.1 | 29.0 | 0.00 | 0.00 | 0.00 | 39 | 1012.0 |
| 20260902222507 | 35 | 67 | 17.7 | 37.0 | 0.00 | 0.00 | 0.00 | 39 | 1012.1 |
| 20260902222007 | 35 | 99 | 24.1 | 37.0 | 0.00 | 0.00 | 0.00 | 39 | 1012.0 |
| 20260902221507 | 35 | 55 | 32.2 | 32.2 | 0.00 | 0.00 | 0.00 | 38 | 1012.0 |
| 20260902221007 | 36 | 84 | 20.9 | 20.9 | 0.00 | 0.00 | 0.00 | 37 | 1012.2 |
| 20260902220506 | 36 | 108 | 9.7 | 24.1 | 0.00 | 0.00 | 0.00 | 38 | 1012.3 |
| 20260902220006 | 35 | 93 | 3.2 | 29.0 | 0.00 | 0.00 | 0.00 | 38 | 1012.3 |
| 20260902215506 | 35 | 76 | 14.5 | 29.0 | 0.00 | 0.00 | 0.00 | 38 | 1012.4 |
| 20260902215006 | 35 | 96 | 11.3 | 25.7 | 0.00 | 0.00 | 0.00 | 38 | 1012.4 |
| 20260902214006 | 35 | 66 | 20.9 | 32.2 | 0.00 | 0.00 | 0.00 | 37 | 1012.5 |
| 20260902213006 | 35 | 82 | 19.3 | 27.4 | 0.00 | 0.00 | 0.00 | 38 | 1012.5 |
| 20260902212506 | 35 | 88 | 20.9 | 27.4 | 0.00 | 0.00 | 0.00 | 39 | 1012.5 |
| 20260902212006 | 35 | 92 | 24.1 | 33.8 | 0.00 | 0.00 | 0.00 | 39 | 1012.6 |
| 20260902211506 | 35 | 71 | 17.7 | 33.8 | 0.00 | 0.00 | 0.00 | 40 | 1012.7 |
| 20260902211006 | 35 | 31 | 20.9 | 27.4 | 0.00 | 0.00 | 0.00 | 39 | 1012.7 |
| 20260902210506 | 35 | 95 | 20.9 | 27.4 | 0.00 | 0.00 | 0.00 | 39 | 1012.7 |
| 20260902205006 | 35 | 45 | 24.1 | 24.1 | 0.00 | 0.00 | 0.00 | 39 | 1013.0 |
| 20260902204506 | 35 | 46 | 8.0 | 24.1 | 0.00 | 0.00 | 0.00 | 39 | 1013.1 |
| 20260902204006 | 35 | 62 | 19.3 | 24.1 | 0.00 | 0.00 | 0.00 | 40 | 1013.1 |
| 20260902203506 | 35 | 91 | 9.7 | 22.5 | 0.00 | 0.00 | 0.00 | 39 | 1013.2 |
| 20260902203006 | 35 | 48 | 11.3 | 29.0 | 0.00 | 0.00 | 0.00 | 39 | 1013.2 |
| 20260902202505 | 35 | 84 | 22.5 | 29.0 | 0.00 | 0.00 | 0.00 | 38 | 1013.2 |
| 20260902202006 | 35 | 40 | 14.5 | 27.4 | 0.00 | 0.00 | 0.00 | 40 | 1013.4 |
| 20260902201505 | 35 | 37 | 22.5 | 27.4 | 0.00 | 0.00 | 0.00 | 41 | 1013.4 |
| 20260902201005 | 35 | 47 | 20.9 | 27.4 | 0.00 | 0.00 | 0.00 | 41 | 1013.6 |
| 20260902200505 | 35 | 41 | 19.3 | 19.3 | 0.00 | 0.00 | 0.00 | 40 | 1013.6 |
| 20260902200005 | 35 | 71 | 16.1 | 17.7 | 0.00 | 0.00 | 0.00 | 39 | 1013.7 |
| 20260902195505 | 35 | 147 | 4.8 | 27.4 | 0.00 | 0.00 | 0.00 | 39 | 1013.7 |
| 20260902195005 | 35 | 51 | 17.7 | 29.0 | 0.00 | 0.00 | 0.00 | 40 | 1013.8 |
| 20260902194505 | 35 | 64 | 17.7 | 29.0 | 0.00 | 0.00 | 0.00 | 40 | 1013.9 |
| 20260902194035 | 35 | 105 | 14.5 | 24.1 | 0.00 | 0.00 | 0.00 | 39 | 1014.0 |
| 20260902193505 | 35 | 103 | 20.9 | 30.6 | 0.00 | 0.00 | 0.00 | 39 | 1013.9 |
| 20260902193005 | 34 | 114 | 4.8 | 30.6 | 0.00 | 0.00 | 0.00 | 40 | 1014.1 |
| 20260902192504 | 35 | 62 | 25.7 | 29.0 | 0.00 | 0.00 | 0.00 | 39 | 1014.2 |
| 20260902192004 | 34 | 57 | 4.8 | 19.3 | 0.00 | 0.00 | 0.00 | 41 | 1014.3 |
| 20260902191504 | 35 | 79 | 14.5 | 29.0 | 0.00 | 0.00 | 0.00 | 40 | 1014.4 |
| 20260902191005 | 35 | 56 | 12.9 | 29.0 | 0.00 | 0.00 | 0.00 | 41 | 1014.4 |
| 20260902190004 | 34 | 57 | 14.5 | 19.3 | 0.00 | 0.00 | 0.00 | 43 | 1014.6 |
| 20260902185505 | 34 | 116 | 12.9 | 17.7 | 0.00 | 0.00 | 0.00 | 42 | 1014.7 |
| 20260902185004 | 34 | 123 | 4.8 | 24.1 | 0.00 | 0.00 | 0.00 | 43 | 1014.8 |
| 20260902184504 | 33 | 79 | 8.0 | 24.1 | 0.00 | 0.00 | 0.00 | 43 | 1014.8 |
| 20260902184004 | 33 | 70 | 11.3 | 20.9 | 0.00 | 0.00 | 0.00 | 44 | 1014.9 |
| 20260902183504 | 33 | 103 | 17.7 | 24.1 | 0.00 | 0.00 | 0.00 | 45 | 1014.9 |
| 20260902183004 | 34 | 114 | 16.1 | 24.1 | 0.00 | 0.00 | 0.00 | 44 | 1015.0 |
| 20260902182004 | 33 | 136 | 11.3 | 19.3 | 0.00 | 0.00 | 0.00 | 44 | 1015.2 |
| 20260902181504 | 34 | 52 | 3.2 | 22.5 | 0.00 | 0.00 | 0.00 | 43 | 1015.3 |
| 20260902181004 | 33 | 65 | 8.0 | 22.5 | 0.00 | 0.00 | 0.00 | 45 | 1015.4 |
| 20260902180504 | 33 | 75 | 6.4 | 22.5 | 0.00 | 0.00 | 0.00 | 43 | 1015.5 |
| 20260902175004 | 33 | 76 | 19.3 | 24.1 | 0.00 | 0.00 | 0.00 | 44 | 1015.6 |
| 20260902174503 | 33 | 94 | 14.5 | 22.5 | 0.00 | 0.00 | 0.00 | 45 | 1015.8 |
| 20260902174003 | 33 | 89 | 9.7 | 19.3 | 0.00 | 0.00 | 0.00 | 45 | 1015.8 |
| 20260902173504 | 33 | 149 | 14.5 | 24.1 | 0.00 | 0.00 | 0.00 | 45 | 1015.8 |
| 20260902173003 | 33 | 87 | 12.9 | 24.1 | 0.00 | 0.00 | 0.00 | 46 | 1016.0 |
| 20260902172004 | 33 | 217 | 4.8 | 24.1 | 0.00 | 0.00 | 0.00 | 47 | 1016.1 |
| 20260902171503 | 32 | 56 | 9.7 | 24.1 | 0.00 | 0.00 | 0.00 | 49 | 1016.2 |
| 20260902171033 | 32 | 62 | 19.3 | 24.1 | 0.00 | 0.00 | 0.00 | 48 | 1016.2 |
| 20260902170503 | 33 | 86 | 17.7 | 17.7 | 0.00 | 0.00 | 0.00 | 47 | 1016.2 |
| 20260902170003 | 32 | 15 | 3.2 | 19.3 | 0.00 | 0.00 | 0.00 | 47 | 1016.4 |
| 20260902165503 | 32 | 100 | 11.3 | 19.3 | 0.00 | 0.00 | 0.00 | 47 | 1016.4 |
| 20260902165003 | 32 | 118 | 12.9 | 22.5 | 0.00 | 0.00 | 0.00 | 47 | 1016.4 |
| 20260902164504 | 32 | 41 | 16.1 | 22.5 | 0.00 | 0.00 | 0.00 | 47 | 1016.5 |
| 20260902164003 | 32 | 138 | 17.7 | 20.9 | 0.00 | 0.00 | 0.00 | 47 | 1016.5 |
| 20260902163503 | 33 | 135 | 11.3 | 16.1 | 0.00 | 0.00 | 0.00 | 46 | 1016.6 |
| 20260902163004 | 32 | 160 | 6.4 | 17.7 | 0.00 | 0.00 | 0.00 | 47 | 1016.7 |
| 20260902162504 | 32 | 133 | 14.5 | 17.7 | 0.00 | 0.00 | 0.00 | 47 | 1016.7 |
| 20260902162004 | 32 | 133 | 9.7 | 14.5 | 0.00 | 0.00 | 0.00 | 49 | 1016.7 |
| 20260902161503 | 32 | 160 | 9.7 | 14.5 | 0.00 | 0.00 | 0.00 | 48 | 1016.7 |
| 20260902161003 | 32 | 97 | 8.0 | 14.5 | 0.00 | 0.00 | 0.00 | 49 | 1016.7 |
| 20260902160503 | 32 | 83 | 1.6 | 11.3 | 0.00 | 0.00 | 0.00 | 50 | 1016.7 |
| 20260902160004 | 32 | 112 | 8.0 | 17.7 | 0.00 | 0.00 | 0.00 | 50 | 1016.8 |
| 20260902155503 | 31 | 111 | 9.7 | 17.7 | 0.00 | 0.00 | 0.00 | 49 | 1016.9 |
| 20260902155003 | 32 | 103 | 16.1 | 16.1 | 0.00 | 0.00 | 0.00 | 51 | 1016.8 |
| 20260902154503 | 32 | 90 | 12.9 | 16.1 | 0.00 | 0.00 | 0.00 | 51 | 1016.8 |
| 20260902153503 | 31 | 89 | 6.4 | 17.7 | 0.00 | 0.00 | 0.00 | 53 | 1016.8 |
| 20260902153003 | 31 | 118 | 17.7 | 17.7 | 0.00 | 0.00 | 0.00 | 53 | 1016.8 |
| 20260902152502 | 31 | 138 | 4.8 | 17.7 | 0.00 | 0.00 | 0.00 | 54 | 1016.8 |
| 20260902152003 | 30 | 126 | 8.0 | 17.7 | 0.00 | 0.00 | 0.00 | 55 | 1016.7 |
| 20260902151502 | 30 | 153 | 16.1 | 16.1 | 0.00 | 0.00 | 0.00 | 55 | 1016.6 |
| 20260902151003 | 31 | 157 | 16.1 | 16.1 | 0.00 | 0.00 | 0.00 | 54 | 1016.6 |